AirNav   Air Wisconsin Up To $57,000 Bonus
 
 863 users online  

9MN1 Troll Farm Airport
Cambridge, Minnesota, USA

GOING TO CAMBRIDGE?


FAA INFORMATION EFFECTIVE 05 DECEMBER 2019

Location

FAA Identifier: 9MN1
Lat/Long: 45-36-41.8640N 093-11-50.8040W
45-36.697733N 093-11.846733W
45.6116289,-93.1974456
(estimated)
Elevation: 960 ft. / 293 m (estimated)
Variation: 02E (1995)
From city: 5 miles N of CAMBRIDGE, MN
Time zone: UTC -6 (UTC -5 during Daylight Saving Time)
Zip code: 55008

Airport Operations

Airport use: Private use. Permission required prior to landing
Activation date: 06/1998
Control tower: no
ARTCC: MINNEAPOLIS CENTER
FSS: PRINCETON FLIGHT SERVICE STATION
Attendance: IREG
Wind indicator: yes
Segmented circle: no

Airport Communications

WX AWOS-3 at CBG (4 nm SW): 121.125 (763-689-9562)
WX AWOS-3 at ROS (11 nm NE): 118.8 (320-358-3339)
WX AWOS-3 at JMR (17 nm N): 123.925 (320-679-1629)
WX AWOS-3 at PNM (18 nm W): 119.025 (763-389-0615)

Nearby radio navigation aids

VOR radial/distance  VOR name  Freq  Var
GEPr009/28.9GOPHER VORTAC117.3006E
STCr081/36.4ST CLOUD VOR/DME112.1003E
RZNr248/36.7SIREN VOR/DME109.4002E

 
NDB name  Hdg/Dist  Freq  Var  ID
CAMBRIDGE039/4.235001ECBG -.-. -... --.
RUSH CITY242/11.428202EROS .-. --- ...
MORA170/17.032700WJMR .--- -- .-.
PRINCETON078/17.536803EPNM .--. -. --
BIG DOCTOR251/37.020301WBXR -... -..- .-.

Airport Services

Runway Information

Runway 9/27

Dimensions: 2100 x 75 ft. / 640 x 23 m
Surface: turf
RUNWAY 9  RUNWAY 27
Traffic pattern: leftleft

Airport Ownership and Management from official FAA records

Ownership: Privately-owned
Owner: JOHN C TROOLIN
35499 BATAAN ST NE
CAMBRIDGE, MN 55008
Phone (763) 689-5690
Manager: JOHN C TROOLIN
35499 BATAAN ST NE
CAMBRIDGE, MN 55008
Phone (763) 689-5690

Airport Operational Statistics

Aircraft based on the field: 1
Single engine airplanes: 1
    

Additional Remarks

FOR CD CTC MINNEAPOLIS ARTCC AT 651-463-5588.

Instrument Procedures

There are no published instrument procedures at 9MN1.

Some nearby airports with instrument procedures:

KCBG - Cambridge Municipal Airport (4 nm SW)
KROS - Rush City Regional Airport (11 nm NE)
KJMR - Mora Municipal Airport (17 nm N)
KPNM - Princeton Municipal Airport (18 nm W)
KGTG - Grantsburg Municipal Airport (25 nm NE)
 
Loc | Ops | Rwys | IFR | FBO | Links
Com | Nav | Svcs | Stats | Notes
Area around 9MN1 (Troll Farm Airport)
 
Road maps at: MapQuest Bing Google
 
Aerial photo
No photo
 
Sectional chart

 
Airport distance calculator
Flying to Troll Farm Airport? Find the distance to fly.

From to 9MN1

Sunrise and sunset
Times for 06-Dec-2019
 Local
(UTC-6)
 Zulu
(UTC)
Morning civil twilight07:0613:06
Sunrise07:3913:39
Sunset16:2822:28
Evening civil twilight17:0223:02

Current date and time
Zulu (UTC)  06-Dec-2019 06:33:13
Local (UTC-6)  06-Dec-2019 00:33:13
 
METAR
KCBG 
4nm SW 
060616Z AUTO 33009KT 10SM OVC026 00/M06 A3018 RMK AO2
KROS 
12nm NE 
060616Z AUTO 32007G17KT 10SM OVC026 M01/M06 A3017 RMK AO2 T10081060
KJMR 
17nm N 
060616Z AUTO 34012G21KT 10SM SCT023 M03/M07 A3020 RMK AO2
KPNM 
17nm W 
060616Z AUTO 29010G15KT 10SM OVC025 M02/M06 A3019 RMK AO2
TAF
NOTAMs
Click for the latest NOTAMs
NOTAMs are issued by the DoD/FAA and will open in a separate window not controlled by AirNav.

 

 
 

Would you like to see your business listed on this page?

 If your business provides an interesting product or service to pilots, flight crews, aircraft, or users of the Troll Farm Airport, you should consider listing it here.  To start the listing process, click on the button below
 
Add a business
 

Other Pages about Troll Farm Airport

Update a link
 
Copyright © AirNav, LLC. All rights reserved. Privacy Policy  Contact